DW7403 Weather Reports


time (UTC)temp
F
wind
direction
speed
knots
gust
knots
rain 1hr
in
rain 24hr
in
rain mn
in
humidity
%
barometer
mb
20260508133737 53 261 3.5 5.2 0.00 0.00 0.00 65 1013.1
20260508130733 53 257 0.9 3.5 0.00 0.00 0.00 67 1012.9
20260508123721 50 233 0.0 0.0 0.00 0.00 0.00 76 1012.8
20260508120733 48 182 0.0 0.0 0.00 0.00 0.00 79 1012.8
20260508113738 45 205 0.0 0.0 0.00 0.00 0.00 85 1012.6
20260508110743 42 163 0.0 0.0 0.00 0.00 0.00 93 1012.5
20260508103724 40 256 0.0 0.0 0.00 0.00 0.00 96 1012.2
20260508100742 39 256 0.0 0.0 0.00 0.00 0.00 95 1012.1
20260508093732 40 256 0.0 0.0 0.00 0.00 0.00 94 1012.1
20260508090725 41 256 0.0 0.0 0.00 0.00 0.00 93 1012.3
20260508083738 42 256 0.0 0.0 0.00 0.00 0.00 92 1012.3
20260508080725 44 257 0.0 0.0 0.00 0.00 0.00 90 1012.2
20260508073729 46 256 0.0 0.0 0.00 0.00 0.00 87 1012.3
20260508070739 47 256 0.0 0.0 0.00 0.00 0.00 88 1012.6
20260508063726 48 256 0.0 0.0 0.00 0.00 0.00 81 1012.9
20260508053739 46 298 0.0 0.0 0.00 0.00 0.00 89 1012.8
20260508050748 46 298 0.0 0.0 0.00 0.00 0.00 88 1012.8
20260508043733 46 298 0.0 0.0 0.00 0.00 0.00 88 1012.8
20260508040746 46 298 0.0 0.9 0.00 0.00 0.00 85 1012.8
20260508033750 46 298 0.0 0.0 0.00 0.00 0.00 86 1012.9
20260508030733 45 298 0.0 0.0 0.00 0.00 0.00 82 1012.7
20260508023734 45 298 0.0 0.0 0.00 0.00 0.00 85 1012.8
20260508020736 45 298 0.0 0.0 0.00 0.00 0.00 83 1012.7
20260508013736 45 298 0.0 0.0 0.00 0.00 0.00 80 1012.7
20260508010720 47 298 0.0 0.0 0.00 0.00 0.00 72 1012.5
20260508003752 50 298 0.0 0.0 0.00 0.00 0.00 66 1012.4
20260508000755 55 298 0.0 0.0 0.00 0.00 0.00 54 1012.1
20260507233732 58 217 1.7 3.5 0.00 0.00 0.00 44 1011.9
20260507230734 58 252 0.9 4.3 0.00 0.00 0.00 43 1011.9
20260507223740 58 313 1.7 6.1 0.00 0.00 0.00 44 1012.1
20260507220728 59 340 2.6 7.0 0.00 0.00 0.00 44 1012.2
20260507210750 58 218 3.5 8.7 0.00 0.00 0.00 43 1011.8
20260507203723 57 229 2.6 12.2 0.00 0.00 0.00 46 1011.7
20260507200755 58 319 0.9 3.5 0.00 0.00 0.00 52 1012.0
20260507193725 56 244 2.6 7.0 0.00 0.00 0.00 51 1012.1
20260507190748 57 260 4.3 9.6 0.00 0.00 0.00 48 1012.2
20260507183753 57 300 5.2 12.2 0.00 0.00 0.00 50 1012.3
20260507180759 57 5 4.3 7.8 0.00 0.00 0.00 52 1012.3
20260507173733 56 252 2.6 7.0 0.00 0.00 0.00 52 1012.6
20260507170759 55 296 2.6 7.8 0.00 0.00 0.00 54 1012.9
20260507163723 55 273 3.5 9.6 0.00 0.00 0.00 50 1013.1
20260507160732 55 186 1.7 7.0 0.00 0.00 0.00 54 1012.9
20260507153725 53 267 3.5 10.4 0.00 0.00 0.00 52 1012.9
20260507150751 52 294 3.5 11.3 0.00 0.00 0.00 55 1012.8
20260507143721 51 209 0.9 6.1 0.00 0.00 0.00 57 1012.9
20260507140732 50 223 3.5 7.8 0.00 0.00 0.00 59 1013.1